Time,TemperatureF,DewpointF,PressureIn,WindDirection,WindDirectionDegrees,WindSpeedMPH,WindSpeedGustMPH,Humidity,HourlyPrecipIn,Conditions,Clouds,dailyrainin,SoftwareType,DateUTC
2013-02-02 00:00:00,18.0,7.9,30.32,West,281,2.0,8.0,64,0.00,,,0.00,meteohub,2013-02-02 05:00:00,
2013-02-02 00:05:00,18.0,7.9,30.32,WNW,293,4.0,8.0,64,0.00,,,0.00,meteohub,2013-02-02 05:05:00,
2013-02-02 00:11:00,18.0,8.2,30.32,WNW,286,2.0,6.0,65,0.00,,,0.00,meteohub,2013-02-02 05:11:00,
2013-02-02 00:16:00,17.8,8.1,30.32,West,266,0.0,5.0,65,0.00,,,0.00,meteohub,2013-02-02 05:16:00,
2013-02-02 00:21:00,17.6,8.2,30.33,West,276,3.0,4.0,66,0.00,,,0.00,meteohub,2013-02-02 05:21:00,
2013-02-02 00:26:00,17.4,8.1,30.33,West,277,1.0,6.0,66,0.00,,,0.00,meteohub,2013-02-02 05:26:00,
2013-02-02 00:31:00,17.4,8.1,30.32,WSW,254,2.0,6.0,66,0.00,,,0.00,meteohub,2013-02-02 05:31:00,
2013-02-02 00:36:00,17.2,7.9,30.33,West,278,2.0,6.0,66,0.00,,,0.00,meteohub,2013-02-02 05:36:00,
2013-02-02 00:41:00,17.2,7.9,30.33,West,277,2.0,5.0,66,0.00,,,0.00,meteohub,2013-02-02 05:41:00,
2013-02-02 00:46:00,17.2,7.9,30.32,West,271,1.0,5.0,66,0.00,,,0.00,meteohub,2013-02-02 05:46:00,
2013-02-02 00:51:00,17.1,7.7,30.32,West,277,2.0,5.0,66,0.00,,,0.00,meteohub,2013-02-02 05:51:00,
2013-02-02 00:56:00,17.1,7.7,30.32,WNW,282,6.0,6.0,66,0.00,,,0.00,meteohub,2013-02-02 05:56:00,
2013-02-02 01:01:00,17.1,7.7,30.33,West,269,3.0,6.0,66,0.00,,,0.00,meteohub,2013-02-02 06:01:00,
2013-02-02 01:06:00,17.1,7.7,30.33,West,267,4.0,6.0,66,0.00,,,0.00,meteohub,2013-02-02 06:06:00,
2013-02-02 01:11:00,17.1,7.7,30.33,West,267,2.0,6.0,66,0.00,,,0.00,meteohub,2013-02-02 06:11:00,
2013-02-02 01:16:00,16.9,7.5,30.33,WNW,284,4.0,5.0,66,0.00,,,0.00,meteohub,2013-02-02 06:16:00,
2013-02-02 01:21:00,16.9,7.5,30.33,West,265,1.0,7.0,66,0.00,,,0.00,meteohub,2013-02-02 06:21:00,
2013-02-02 01:26:00,16.9,7.9,30.33,West,262,2.0,7.0,67,0.00,,,0.00,meteohub,2013-02-02 06:26:00,
2013-02-02 01:31:00,16.7,7.7,30.33,West,267,2.0,7.0,67,0.00,,,0.00,meteohub,2013-02-02 06:31:00,
2013-02-02 01:36:00,16.5,7.5,30.34,West,271,3.0,7.0,67,0.00,,,0.00,meteohub,2013-02-02 06:36:00,
2013-02-02 01:41:00,16.3,7.3,30.34,West,261,2.0,7.0,67,0.00,,,0.00,meteohub,2013-02-02 06:41:00,
2013-02-02 01:46:00,16.3,7.3,30.35,West,267,3.0,5.0,67,0.00,,,0.00,meteohub,2013-02-02 06:46:00,
2013-02-02 01:51:00,16.3,7.0,30.35,West,265,3.0,7.0,66,0.00,,,0.00,meteohub,2013-02-02 06:51:00,
2013-02-02 01:56:00,16.3,7.0,30.35,West,277,1.0,7.0,66,0.00,,,0.00,meteohub,2013-02-02 06:56:00,
2013-02-02 02:01:00,16.3,7.3,30.35,West,269,5.0,7.0,67,0.00,,,0.00,meteohub,2013-02-02 07:01:00,
2013-02-02 02:06:00,16.2,6.8,30.35,West,268,3.0,5.0,66,0.00,,,0.00,meteohub,2013-02-02 07:06:00,
2013-02-02 02:11:00,16.2,6.8,30.35,West,259,1.0,6.0,66,0.00,,,0.00,meteohub,2013-02-02 07:11:00,
2013-02-02 02:16:00,16.2,6.8,30.35,West,263,2.0,6.0,66,0.00,,,0.00,meteohub,2013-02-02 07:16:00,
2013-02-02 02:21:00,16.2,6.8,30.35,West,276,3.0,6.0,66,0.00,,,0.00,meteohub,2013-02-02 07:21:00,
2013-02-02 02:26:00,16.2,6.8,30.35,West,261,3.0,6.0,66,0.00,,,0.00,meteohub,2013-02-02 07:26:00,
2013-02-02 02:31:00,16.2,6.8,30.35,West,260,3.0,6.0,66,0.00,,,0.00,meteohub,2013-02-02 07:31:00,
2013-02-02 02:36:00,16.0,6.6,30.35,West,274,2.0,6.0,66,0.00,,,0.00,meteohub,2013-02-02 07:36:00,
2013-02-02 02:41:00,16.0,6.6,30.35,West,280,4.0,6.0,66,0.00,,,0.00,meteohub,2013-02-02 07:41:00,
2013-02-02 02:46:00,16.0,6.6,30.35,West,271,3.0,6.0,66,0.00,,,0.00,meteohub,2013-02-02 07:46:00,
2013-02-02 02:51:00,16.0,6.3,30.35,WNW,282,3.0,6.0,65,0.00,,,0.00,meteohub,2013-02-02 07:51:00,
2013-02-02 02:56:00,16.0,6.6,30.34,WNW,288,3.0,6.0,66,0.00,,,0.00,meteohub,2013-02-02 07:56:00,
2013-02-02 03:01:00,16.0,6.6,30.34,West,276,1.0,5.0,66,0.00,,,0.00,meteohub,2013-02-02 08:01:00,
2013-02-02 03:07:00,16.0,6.6,30.34,West,279,2.0,5.0,66,0.00,,,0.00,meteohub,2013-02-02 08:07:00,
2013-02-02 03:12:00,15.8,6.4,30.34,WNW,283,3.0,6.0,66,0.00,,,0.00,meteohub,2013-02-02 08:12:00,
2013-02-02 03:17:00,15.8,6.4,30.34,West,276,2.0,6.0,66,0.00,,,0.00,meteohub,2013-02-02 08:17:00,
2013-02-02 03:22:00,15.8,6.4,30.33,WNW,288,3.0,6.0,66,0.00,,,0.00,meteohub,2013-02-02 08:22:00,
2013-02-02 03:27:00,15.6,6.3,30.32,West,269,0.0,6.0,66,0.00,,,0.00,meteohub,2013-02-02 08:27:00,
2013-02-02 03:32:00,15.6,6.6,30.32,WNW,287,2.0,5.0,67,0.00,,,0.00,meteohub,2013-02-02 08:32:00,
2013-02-02 03:37:00,15.6,7.0,30.32,WNW,287,2.0,5.0,68,0.00,,,0.00,meteohub,2013-02-02 08:37:00,
2013-02-02 03:42:00,15.4,6.4,30.32,WNW,288,2.0,6.0,67,0.00,,,0.00,meteohub,2013-02-02 08:42:00,
2013-02-02 03:47:00,15.4,6.4,30.32,West,276,3.0,8.0,67,0.00,,,0.00,meteohub,2013-02-02 08:47:00,
2013-02-02 03:52:00,15.4,6.4,30.32,West,277,3.0,8.0,67,0.00,,,0.00,meteohub,2013-02-02 08:52:00,
2013-02-02 03:57:00,15.4,6.8,30.32,West,276,5.0,8.0,68,0.00,,,0.00,meteohub,2013-02-02 08:57:00,
2013-02-02 04:02:00,15.4,6.8,30.32,West,271,3.0,6.0,68,0.00,,,0.00,meteohub,2013-02-02 09:02:00,
2013-02-02 04:07:00,15.3,7.0,30.32,West,277,3.0,5.0,69,0.00,,,0.00,meteohub,2013-02-02 09:07:00,
2013-02-02 04:12:00,15.3,7.0,30.32,WNW,288,3.0,5.0,69,0.00,,,0.00,meteohub,2013-02-02 09:12:00,
2013-02-02 04:17:00,15.3,7.0,30.32,West,277,4.0,5.0,69,0.00,,,0.00,meteohub,2013-02-02 09:17:00,
2013-02-02 04:22:00,15.3,7.2,30.32,West,280,3.0,5.0,70,0.00,,,0.00,meteohub,2013-02-02 09:22:00,
2013-02-02 04:27:00,15.3,7.0,30.32,WNW,282,3.0,5.0,69,0.00,,,0.00,meteohub,2013-02-02 09:27:00,
2013-02-02 04:32:00,15.3,7.2,30.32,West,281,2.0,5.0,70,0.00,,,0.00,meteohub,2013-02-02 09:32:00,
2013-02-02 04:37:00,15.1,7.0,30.32,WNW,284,1.0,4.0,70,0.00,,,0.00,meteohub,2013-02-02 09:37:00,
2013-02-02 04:42:00,15.1,7.0,30.32,West,265,1.0,4.0,70,0.00,,,0.00,meteohub,2013-02-02 09:42:00,
2013-02-02 04:47:00,15.1,7.0,30.32,West,277,3.0,4.0,70,0.00,,,0.00,meteohub,2013-02-02 09:47:00,
2013-02-02 04:52:00,15.1,7.0,30.32,West,273,2.0,4.0,70,0.00,,,0.00,meteohub,2013-02-02 09:52:00,
2013-02-02 04:57:00,15.1,7.0,30.32,West,276,1.0,4.0,70,0.00,,,0.00,meteohub,2013-02-02 09:57:00,
2013-02-02 05:02:00,15.1,7.3,30.32,West,281,1.0,4.0,71,0.00,,,0.00,meteohub,2013-02-02 10:02:00,
2013-02-02 05:07:00,14.9,7.0,30.32,WNW,285,1.0,4.0,70,0.00,,,0.00,meteohub,2013-02-02 10:07:00,
2013-02-02 05:13:00,14.9,7.0,30.32,West,273,5.0,5.0,70,0.00,,,0.00,meteohub,2013-02-02 10:13:00,
2013-02-02 05:18:00,14.9,7.2,30.32,West,275,2.0,5.0,71,0.00,,,0.00,meteohub,2013-02-02 10:18:00,
2013-02-02 05:23:00,14.9,7.2,30.32,West,277,4.0,5.0,71,0.00,,,0.00,meteohub,2013-02-02 10:23:00,
2013-02-02 05:28:00,14.7,7.0,30.32,West,275,2.0,5.0,71,0.00,,,0.00,meteohub,2013-02-02 10:28:00,
2013-02-02 05:33:00,14.7,7.0,30.32,West,271,0.0,4.0,71,0.00,,,0.00,meteohub,2013-02-02 10:33:00,
2013-02-02 05:38:00,14.7,7.0,30.32,West,269,0.0,4.0,71,0.00,,,0.00,meteohub,2013-02-02 10:38:00,
2013-02-02 05:43:00,14.7,7.0,30.32,West,273,2.0,5.0,71,0.00,,,0.00,meteohub,2013-02-02 10:43:00,
2013-02-02 05:48:00,14.7,7.0,30.32,West,271,2.0,5.0,71,0.00,,,0.00,meteohub,2013-02-02 10:48:00,
2013-02-02 05:53:00,14.5,7.2,30.32,West,273,1.0,5.0,72,0.00,,,0.00,meteohub,2013-02-02 10:53:00,
2013-02-02 05:58:00,14.5,7.2,30.32,West,267,3.0,5.0,72,0.00,,,0.00,meteohub,2013-02-02 10:58:00,
2013-02-02 06:03:00,14.5,7.5,30.32,West,269,1.0,5.0,73,0.00,,,0.00,meteohub,2013-02-02 11:03:00,
2013-02-02 06:08:00,14.4,7.3,30.32,West,272,2.0,5.0,73,0.00,,,0.00,meteohub,2013-02-02 11:08:00,
2013-02-02 06:13:00,14.4,7.3,30.32,West,271,3.0,5.0,73,0.00,,,0.00,meteohub,2013-02-02 11:13:00,
2013-02-02 06:18:00,14.4,7.3,30.32,West,271,3.0,5.0,73,0.00,,,0.00,meteohub,2013-02-02 11:18:00,
2013-02-02 06:23:00,14.4,7.3,30.32,West,271,1.0,4.0,73,0.00,,,0.00,meteohub,2013-02-02 11:23:00,
2013-02-02 06:28:00,14.4,7.3,30.32,West,271,0.0,4.0,73,0.00,,,0.00,meteohub,2013-02-02 11:28:00,
2013-02-02 06:33:00,14.2,7.3,30.32,West,271,1.0,4.0,74,0.00,,,0.00,meteohub,2013-02-02 11:33:00,
2013-02-02 06:38:00,14.2,7.3,30.32,West,271,1.0,3.0,74,0.00,,,0.00,meteohub,2013-02-02 11:38:00,
2013-02-02 06:43:00,14.2,7.3,30.32,West,271,2.0,3.0,74,0.00,,,0.00,meteohub,2013-02-02 11:43:00,
2013-02-02 06:48:00,14.2,7.3,30.32,West,271,0.0,3.0,74,0.00,,,0.00,meteohub,2013-02-02 11:48:00,
2013-02-02 06:53:00,14.2,7.2,30.32,West,263,3.0,3.0,73,0.00,,,0.00,meteohub,2013-02-02 11:53:00,
2013-02-02 06:58:00,14.2,7.2,30.32,West,268,2.0,4.0,73,0.00,,,0.00,meteohub,2013-02-02 11:58:00,
2013-02-02 07:03:00,14.4,7.3,30.32,West,262,3.0,4.0,73,0.00,,,0.00,meteohub,2013-02-02 12:03:00,
2013-02-02 07:08:00,14.2,7.2,30.32,West,263,0.0,4.0,73,0.00,,,0.00,meteohub,2013-02-02 12:08:00,
2013-02-02 07:13:00,14.2,7.2,30.32,West,263,2.0,4.0,73,0.00,,,0.00,meteohub,2013-02-02 12:13:00,
2013-02-02 07:18:00,14.2,7.2,30.33,West,263,2.0,4.0,73,0.00,,,0.00,meteohub,2013-02-02 12:18:00,
2013-02-02 07:23:00,14.2,7.2,30.33,West,263,1.0,4.0,73,0.00,,,0.00,meteohub,2013-02-02 12:23:00,
2013-02-02 07:28:00,14.2,7.2,30.33,West,263,1.0,4.0,73,0.00,,,0.00,meteohub,2013-02-02 12:28:00,
2013-02-02 07:33:00,14.2,7.2,30.33,West,267,3.0,4.0,73,0.00,,,0.00,meteohub,2013-02-02 12:33:00,
2013-02-02 07:38:00,14.2,7.3,30.32,West,269,2.0,4.0,74,0.00,,,0.00,meteohub,2013-02-02 12:38:00,
2013-02-02 07:44:00,14.4,7.5,30.33,West,269,1.0,4.0,74,0.00,,,0.00,meteohub,2013-02-02 12:44:00,
2013-02-02 07:49:00,14.4,7.5,30.33,West,267,0.0,4.0,74,0.00,,,0.00,meteohub,2013-02-02 12:49:00,
2013-02-02 07:54:00,14.4,7.5,30.33,West,267,1.0,3.0,74,0.00,,,0.00,meteohub,2013-02-02 12:54:00,
2013-02-02 07:59:00,14.5,7.5,30.33,West,260,1.0,3.0,73,0.00,,,0.00,meteohub,2013-02-02 12:59:00,
2013-02-02 08:04:00,14.7,7.7,30.34,West,259,1.0,3.0,73,0.00,,,0.00,meteohub,2013-02-02 13:04:00,
2013-02-02 08:09:00,15.1,8.1,30.33,WSW,254,1.0,3.0,73,0.00,,,0.00,meteohub,2013-02-02 13:09:00,
2013-02-02 08:14:00,15.3,8.2,30.33,WSW,242,1.0,3.0,73,0.00,,,0.00,meteohub,2013-02-02 13:14:00,
2013-02-02 08:19:00,15.4,8.1,30.33,WSW,242,1.0,3.0,72,0.00,,,0.00,meteohub,2013-02-02 13:19:00,
2013-02-02 08:24:00,15.6,7.9,30.33,WSW,245,3.0,4.0,71,0.00,,,0.00,meteohub,2013-02-02 13:24:00,
2013-02-02 08:29:00,16.0,7.9,30.33,WSW,257,1.0,7.0,70,0.00,,,0.00,meteohub,2013-02-02 13:29:00,
2013-02-02 08:34:00,16.2,8.1,30.33,West,273,1.0,7.0,70,0.00,,,0.00,meteohub,2013-02-02 13:34:00,
2013-02-02 08:39:00,16.3,7.9,30.33,West,273,6.0,7.0,69,0.00,,,0.00,meteohub,2013-02-02 13:39:00,
2013-02-02 08:44:00,16.7,7.7,30.33,WSW,252,4.0,8.0,67,0.00,,,0.00,meteohub,2013-02-02 13:44:00,
2013-02-02 08:49:00,16.9,7.5,30.32,West,275,4.0,8.0,66,0.00,,,0.00,meteohub,2013-02-02 13:49:00,
2013-02-02 08:54:00,17.1,7.3,30.32,West,262,4.0,8.0,65,0.00,,,0.00,meteohub,2013-02-02 13:54:00,
2013-02-02 08:59:00,17.2,7.5,30.32,West,271,1.0,7.0,65,0.00,,,0.00,meteohub,2013-02-02 13:59:00,
2013-02-02 09:04:00,17.4,7.3,30.32,West,259,6.0,7.0,64,0.00,,,0.00,meteohub,2013-02-02 14:04:00,
2013-02-02 09:09:00,17.8,7.3,30.32,SW,227,2.0,8.0,63,0.00,,,0.00,meteohub,2013-02-02 14:09:00,
2013-02-02 09:14:00,18.0,7.5,30.32,SW,222,4.0,8.0,63,0.00,,,0.00,meteohub,2013-02-02 14:14:00,
2013-02-02 09:19:00,18.0,7.5,30.31,SW,228,3.0,8.0,63,0.00,,,0.00,meteohub,2013-02-02 14:19:00,
2013-02-02 09:24:00,18.1,7.3,30.31,SSW,198,2.0,8.0,62,0.00,,,0.00,meteohub,2013-02-02 14:24:00,
2013-02-02 09:29:00,18.1,7.3,30.31,SW,214,4.0,7.0,62,0.00,,,0.00,meteohub,2013-02-02 14:29:00,
2013-02-02 09:34:00,18.1,7.7,30.31,SW,234,4.0,7.0,63,0.00,,,0.00,meteohub,2013-02-02 14:34:00,
2013-02-02 09:39:00,18.7,8.2,30.31,SW,227,4.0,7.0,63,0.00,,,0.00,meteohub,2013-02-02 14:39:00,
2013-02-02 09:44:00,19.0,8.6,30.31,West,276,4.0,7.0,63,0.00,,,0.00,meteohub,2013-02-02 14:44:00,
2013-02-02 09:49:00,19.6,8.2,30.31,SW,219,2.0,7.0,61,0.00,,,0.00,meteohub,2013-02-02 14:49:00,
2013-02-02 09:54:00,19.4,7.7,30.31,SSW,207,1.0,6.0,60,0.00,,,0.00,meteohub,2013-02-02 14:54:00,
2013-02-02 09:59:00,19.8,8.4,30.30,SW,226,3.0,8.0,61,0.00,,,0.00,meteohub,2013-02-02 14:59:00,
2013-02-02 10:04:00,19.8,8.1,30.30,SW,230,4.0,8.0,60,0.00,,,0.00,meteohub,2013-02-02 15:04:00,
2013-02-02 10:09:00,20.1,9.1,30.30,SSW,213,2.0,8.0,62,0.00,,,0.00,meteohub,2013-02-02 15:09:00,
2013-02-02 10:14:00,20.1,8.4,30.30,SW,221,6.0,6.0,60,0.00,,,0.00,meteohub,2013-02-02 15:14:00,
2013-02-02 10:19:00,20.1,8.4,30.30,SSW,211,3.0,7.0,60,0.00,,,0.00,meteohub,2013-02-02 15:19:00,
2013-02-02 10:24:00,20.1,8.1,30.30,WSW,258,7.0,7.0,59,0.00,,,0.00,meteohub,2013-02-02 15:24:00,
2013-02-02 10:29:00,20.5,8.4,30.30,SW,233,6.0,9.0,59,0.00,,,0.00,meteohub,2013-02-02 15:29:00,
2013-02-02 10:34:00,20.5,8.1,30.30,SW,217,4.0,9.0,58,0.00,,,0.00,meteohub,2013-02-02 15:34:00,
2013-02-02 10:39:00,20.5,8.4,30.30,West,273,6.0,9.0,59,0.00,,,0.00,meteohub,2013-02-02 15:39:00,
2013-02-02 10:44:00,20.3,7.9,30.30,WSW,242,3.0,8.0,58,0.00,,,0.00,meteohub,2013-02-02 15:44:00,
2013-02-02 10:49:00,20.5,8.4,30.30,West,273,4.0,9.0,59,0.00,,,0.00,meteohub,2013-02-02 15:49:00,
2013-02-02 10:54:00,20.5,8.1,30.30,WSW,249,4.0,9.0,58,0.00,,,0.00,meteohub,2013-02-02 15:54:00,
2013-02-02 10:59:00,20.5,8.1,30.30,West,275,6.0,9.0,58,0.00,,,0.00,meteohub,2013-02-02 15:59:00,
2013-02-02 11:04:00,20.5,8.8,30.29,West,262,4.0,10.0,60,0.00,,,0.00,meteohub,2013-02-02 16:04:00,
2013-02-02 11:09:00,20.8,8.8,30.29,SSW,210,1.0,10.0,59,0.00,,,0.00,meteohub,2013-02-02 16:09:00,
2013-02-02 11:14:00,21.0,8.6,30.28,WSW,249,2.0,10.0,58,0.00,,,0.00,meteohub,2013-02-02 16:14:00,
2013-02-02 11:19:00,21.0,8.6,30.28,West,259,1.0,8.0,58,0.00,,,0.00,meteohub,2013-02-02 16:19:00,
2013-02-02 11:24:00,21.4,9.3,30.28,SW,221,2.0,9.0,59,0.00,,,0.00,meteohub,2013-02-02 16:24:00,
2013-02-02 11:29:00,21.4,8.6,30.28,WSW,252,9.0,9.0,57,0.00,,,0.00,meteohub,2013-02-02 16:29:00,
2013-02-02 11:34:00,21.2,8.8,30.28,SW,231,7.0,11.0,58,0.00,,,0.00,meteohub,2013-02-02 16:34:00,
2013-02-02 11:39:00,21.2,8.4,30.27,West,280,3.0,11.0,57,0.00,,,0.00,meteohub,2013-02-02 16:39:00,
2013-02-02 11:44:00,21.6,9.5,30.27,SSW,209,6.0,11.0,59,0.00,,,0.00,meteohub,2013-02-02 16:44:00,
2013-02-02 11:49:00,21.7,8.8,30.27,West,281,5.0,10.0,57,0.00,,,0.00,meteohub,2013-02-02 16:49:00,
2013-02-02 11:54:00,21.7,8.8,30.27,WSW,252,8.0,10.0,57,0.00,,,0.00,meteohub,2013-02-02 16:54:00,
2013-02-02 11:59:00,21.9,9.3,30.27,West,271,9.0,12.0,58,0.00,,,0.00,meteohub,2013-02-02 16:59:00,
2013-02-02 12:04:00,21.9,9.0,30.26,WSW,245,5.0,12.0,57,0.00,,,0.00,meteohub,2013-02-02 17:04:00,
2013-02-02 12:09:00,21.9,9.0,30.25,WSW,254,4.0,12.0,57,0.00,,,0.00,meteohub,2013-02-02 17:09:00,
2013-02-02 12:14:00,21.7,9.3,30.25,WSW,256,4.0,11.0,58,0.00,,,0.00,meteohub,2013-02-02 17:14:00,
2013-02-02 12:19:00,22.3,10.2,30.24,SW,234,3.0,9.0,59,0.00,,,0.00,meteohub,2013-02-02 17:19:00,
2013-02-02 12:24:00,22.5,9.9,30.24,WSW,242,5.0,8.0,58,0.00,,,0.00,meteohub,2013-02-02 17:24:00,
2013-02-02 12:29:00,22.6,9.7,30.24,SW,215,3.0,8.0,57,0.00,,,0.00,meteohub,2013-02-02 17:29:00,
2013-02-02 12:34:00,23.0,10.0,30.23,WSW,244,2.0,8.0,57,0.00,,,0.00,meteohub,2013-02-02 17:34:00,
2013-02-02 12:40:00,23.2,9.9,30.23,WSW,244,4.0,7.0,56,0.00,,,0.00,meteohub,2013-02-02 17:40:00,
2013-02-02 12:44:00,23.2,10.2,30.23,WNW,283,5.0,10.0,57,0.00,,,0.00,meteohub,2013-02-02 17:44:00,
2013-02-02 12:50:00,23.2,9.9,30.22,WNW,284,1.0,11.0,56,0.00,,,0.00,meteohub,2013-02-02 17:50:00,
2013-02-02 12:55:00,23.0,9.7,30.22,West,264,7.0,11.0,56,0.00,,,0.00,meteohub,2013-02-02 17:55:00,
2013-02-02 13:00:00,22.8,9.9,30.22,WSW,238,7.0,9.0,57,0.00,,,0.00,meteohub,2013-02-02 18:00:00,
2013-02-02 13:05:00,22.6,10.4,30.22,SSW,213,4.0,9.0,59,0.00,,,0.00,meteohub,2013-02-02 18:05:00,
2013-02-02 13:10:00,22.5,9.9,30.22,SW,223,4.0,9.0,58,0.00,,,0.00,meteohub,2013-02-02 18:10:00,
2013-02-02 13:15:00,22.6,10.0,30.21,SW,232,6.0,9.0,58,0.00,,,0.00,meteohub,2013-02-02 18:15:00,
2013-02-02 13:20:00,22.6,10.0,30.21,WSW,239,6.0,9.0,58,0.00,,,0.00,meteohub,2013-02-02 18:20:00,
2013-02-02 13:25:00,22.6,10.0,30.21,SW,230,3.0,8.0,58,0.00,,,0.00,meteohub,2013-02-02 18:25:00,
2013-02-02 13:30:00,22.5,9.5,30.20,West,275,7.0,8.0,57,0.00,,,0.00,meteohub,2013-02-02 18:30:00,
2013-02-02 13:35:00,22.5,9.9,30.20,WSW,252,7.0,11.0,58,0.00,,,0.00,meteohub,2013-02-02 18:35:00,
2013-02-02 13:40:00,22.5,10.2,30.20,WSW,248,6.0,11.0,59,0.00,,,0.00,meteohub,2013-02-02 18:40:00,
2013-02-02 13:45:00,22.6,10.4,30.19,WSW,239,4.0,11.0,59,0.00,,,0.00,meteohub,2013-02-02 18:45:00,
2013-02-02 13:50:00,22.8,10.2,30.19,WSW,248,4.0,11.0,58,0.00,,,0.00,meteohub,2013-02-02 18:50:00,
2013-02-02 13:55:00,23.0,10.8,30.19,SW,227,2.0,10.0,59,0.00,,,0.00,meteohub,2013-02-02 18:55:00,
2013-02-02 14:00:00,23.2,10.9,30.19,WSW,237,1.0,10.0,59,0.00,,,0.00,meteohub,2013-02-02 19:00:00,
2013-02-02 14:05:00,23.4,10.8,30.19,SW,229,3.0,10.0,58,0.00,,,0.00,meteohub,2013-02-02 19:05:00,
2013-02-02 14:10:00,23.4,10.8,30.18,SSW,192,6.0,8.0,58,0.00,,,0.00,meteohub,2013-02-02 19:10:00,
2013-02-02 14:15:00,23.4,11.5,30.18,SSW,211,0.0,8.0,60,0.00,,,0.00,meteohub,2013-02-02 19:15:00,
2013-02-02 14:20:00,23.7,11.8,30.18,SW,221,4.0,7.0,60,0.00,,,0.00,meteohub,2013-02-02 19:20:00,
2013-02-02 14:25:00,23.5,12.0,30.18,SSW,199,4.0,8.0,61,0.00,,,0.00,meteohub,2013-02-02 19:25:00,
2013-02-02 14:30:00,23.4,12.2,30.17,SW,229,6.0,9.0,62,0.00,,,0.00,meteohub,2013-02-02 19:30:00,
2013-02-02 14:35:00,23.4,12.2,30.17,SSW,206,5.0,9.0,62,0.00,,,0.00,meteohub,2013-02-02 19:35:00,
2013-02-02 14:40:00,23.4,12.2,30.17,SW,215,4.0,9.0,62,0.00,,,0.00,meteohub,2013-02-02 19:40:00,
2013-02-02 14:45:00,23.5,12.4,30.17,WSW,242,2.0,9.0,62,0.00,,,0.00,meteohub,2013-02-02 19:45:00,
2013-02-02 14:50:00,23.7,12.2,30.16,SW,218,3.0,9.0,61,0.00,,,0.00,meteohub,2013-02-02 19:50:00,
2013-02-02 14:55:00,24.1,12.6,30.16,South,188,4.0,7.0,61,0.00,,,0.00,meteohub,2013-02-02 19:55:00,
2013-02-02 15:00:00,24.3,12.4,30.16,SSW,211,2.0,7.0,60,0.00,,,0.00,meteohub,2013-02-02 20:00:00,
2013-02-02 15:05:00,24.3,12.4,30.16,South,188,2.0,7.0,60,0.00,,,0.00,meteohub,2013-02-02 20:05:00,
2013-02-02 15:11:00,24.3,12.4,30.16,SSW,201,3.0,7.0,60,0.00,,,0.00,meteohub,2013-02-02 20:11:00,
2013-02-02 15:16:00,24.3,12.4,30.15,SW,222,4.0,7.0,60,0.00,,,0.00,meteohub,2013-02-02 20:16:00,
2013-02-02 15:21:00,24.3,12.7,30.15,SW,230,7.0,7.0,61,0.00,,,0.00,meteohub,2013-02-02 20:21:00,
2013-02-02 15:26:00,24.3,12.4,30.15,WSW,237,2.0,9.0,60,0.00,,,0.00,meteohub,2013-02-02 20:26:00,
2013-02-02 15:31:00,24.3,13.5,30.15,WSW,244,6.0,9.0,63,0.00,,,0.00,meteohub,2013-02-02 20:31:00,
2013-02-02 15:36:00,23.9,13.5,30.15,SW,228,3.0,9.0,64,0.00,,,0.00,meteohub,2013-02-02 20:36:00,
2013-02-02 15:41:00,23.7,13.6,30.14,WSW,252,4.0,9.0,65,0.00,,,0.00,meteohub,2013-02-02 20:41:00,
2013-02-02 15:46:00,23.7,13.6,30.15,SW,229,4.0,9.0,65,0.00,,,0.00,meteohub,2013-02-02 20:46:00,
2013-02-02 15:51:00,23.9,14.2,30.14,SW,221,6.0,7.0,66,0.00,,,0.00,meteohub,2013-02-02 20:51:00,
2013-02-02 15:56:00,23.5,14.5,30.15,SSW,201,5.0,8.0,68,0.00,,,0.00,meteohub,2013-02-02 20:56:00,
2013-02-02 16:01:00,23.4,15.1,30.15,SW,236,9.0,9.0,70,0.00,,,0.00,meteohub,2013-02-02 21:01:00,
2013-02-02 16:06:00,22.8,14.9,30.15,SW,214,3.0,9.0,71,0.00,,,0.00,meteohub,2013-02-02 21:06:00,
2013-02-02 16:11:00,22.8,15.1,30.14,SW,214,0.0,9.0,72,0.00,,,0.00,meteohub,2013-02-02 21:11:00,
2013-02-02 16:16:00,22.8,15.4,30.14,SSW,206,2.0,9.0,73,0.00,,,0.00,meteohub,2013-02-02 21:16:00,
2013-02-02 16:21:00,22.8,15.8,30.14,WSW,237,3.0,7.0,74,0.00,,,0.00,meteohub,2013-02-02 21:21:00,
2013-02-02 16:26:00,22.5,16.0,30.14,SW,223,3.0,6.0,76,0.00,,,0.00,meteohub,2013-02-02 21:26:00,
2013-02-02 16:31:00,22.5,16.7,30.14,SW,220,2.0,6.0,78,0.00,,,0.00,meteohub,2013-02-02 21:31:00,
2013-02-02 16:36:00,22.3,16.5,30.14,SSW,207,2.0,8.0,78,0.00,,,0.00,meteohub,2013-02-02 21:36:00,
2013-02-02 16:41:00,22.3,16.7,30.14,SSW,211,1.0,8.0,79,0.00,,,0.00,meteohub,2013-02-02 21:41:00,
2013-02-02 16:46:00,22.1,16.9,30.13,SSW,209,1.0,8.0,80,0.00,,,0.00,meteohub,2013-02-02 21:46:00,
2013-02-02 16:51:00,22.1,17.2,30.13,SW,219,3.0,6.0,81,0.00,,,0.00,meteohub,2013-02-02 21:51:00,
2013-02-02 16:56:00,21.9,17.1,30.13,SSW,194,2.0,5.0,81,0.00,,,0.00,meteohub,2013-02-02 21:56:00,
2013-02-02 17:01:00,21.9,17.2,30.12,SW,227,2.0,5.0,82,0.00,,,0.00,meteohub,2013-02-02 22:01:00,
2013-02-02 17:06:00,21.7,17.1,30.12,SW,226,0.0,5.0,82,0.00,,,0.00,meteohub,2013-02-02 22:06:00,
2013-02-02 17:11:00,21.9,17.6,30.11,SW,226,2.0,4.0,83,0.00,,,0.00,meteohub,2013-02-02 22:11:00,
2013-02-02 17:16:00,21.9,17.6,30.11,SW,227,0.0,4.0,83,0.00,,,0.00,meteohub,2013-02-02 22:16:00,
2013-02-02 17:21:00,21.7,17.4,30.11,SW,227,0.0,3.0,83,0.00,,,0.00,meteohub,2013-02-02 22:21:00,
2013-02-02 17:26:00,21.7,17.6,30.11,SW,226,0.0,3.0,84,0.00,,,0.00,meteohub,2013-02-02 22:26:00,
2013-02-02 17:31:00,21.9,17.8,30.11,SW,226,1.0,3.0,84,0.00,,,0.00,meteohub,2013-02-02 22:31:00,
2013-02-02 17:36:00,21.9,17.8,30.11,SW,226,0.0,3.0,84,0.00,,,0.00,meteohub,2013-02-02 22:36:00,
2013-02-02 17:41:00,21.9,17.8,30.11,SW,226,0.0,2.0,84,0.00,,,0.00,meteohub,2013-02-02 22:41:00,
2013-02-02 17:46:00,21.9,18.1,30.11,SW,226,0.0,2.0,85,0.00,,,0.00,meteohub,2013-02-02 22:46:00,
2013-02-02 17:52:00,21.9,18.1,30.11,SW,226,0.0,1.0,85,0.00,,,0.00,meteohub,2013-02-02 22:52:00,
2013-02-02 17:57:00,21.9,18.1,30.11,SSW,207,0.0,3.0,85,0.00,,,0.00,meteohub,2013-02-02 22:57:00,
2013-02-02 18:02:00,21.9,18.3,30.10,SSE,166,3.0,3.0,86,0.00,,,0.00,meteohub,2013-02-02 23:02:00,
2013-02-02 18:07:00,21.9,18.3,30.10,SSE,166,0.0,3.0,86,0.00,,,0.00,meteohub,2013-02-02 23:07:00,
2013-02-02 18:12:00,21.9,18.3,30.10,SSE,166,0.0,3.0,86,0.00,,,0.00,meteohub,2013-02-02 23:12:00,
2013-02-02 18:17:00,21.9,18.7,30.10,SSE,165,0.0,3.0,87,0.00,,,0.00,meteohub,2013-02-02 23:17:00,
2013-02-02 18:22:00,21.9,18.7,30.10,SSE,166,0.0,2.0,87,0.00,,,0.00,meteohub,2013-02-02 23:22:00,
2013-02-02 18:27:00,22.1,18.9,30.10,SSE,166,1.0,2.0,87,0.00,,,0.00,meteohub,2013-02-02 23:27:00,
2013-02-02 18:32:00,22.1,19.0,30.11,South,179,0.0,4.0,88,0.00,,,0.00,meteohub,2013-02-02 23:32:00,
2013-02-02 18:37:00,22.1,19.0,30.11,South,180,0.0,4.0,88,0.00,,,0.00,meteohub,2013-02-02 23:37:00,
2013-02-02 18:42:00,22.1,19.4,30.11,South,180,0.0,4.0,89,0.00,,,0.00,meteohub,2013-02-02 23:42:00,
2013-02-02 18:47:00,22.1,19.4,30.10,South,180,0.0,2.0,89,0.00,,,0.00,meteohub,2013-02-02 23:47:00,
2013-02-02 18:52:00,22.3,19.6,30.10,South,179,0.0,2.0,89,0.00,,,0.00,meteohub,2013-02-02 23:52:00,
2013-02-02 18:57:00,22.3,19.6,30.10,South,180,0.0,2.0,89,0.00,,,0.00,meteohub,2013-02-02 23:57:00,
2013-02-02 19:02:00,22.3,19.8,30.10,South,180,0.0,1.0,90,0.00,,,0.00,meteohub,2013-02-03 00:02:00,
2013-02-02 19:07:00,22.3,19.8,30.10,South,179,0.0,1.0,90,0.00,,,0.00,meteohub,2013-02-03 00:07:00,
2013-02-02 19:12:00,22.3,19.8,30.10,South,179,1.0,1.0,90,0.00,,,0.00,meteohub,2013-02-03 00:12:00,
2013-02-02 19:17:00,22.3,19.8,30.10,South,180,0.0,1.0,90,0.00,,,0.00,meteohub,2013-02-03 00:17:00,
2013-02-02 19:22:00,22.3,19.8,30.11,South,180,0.0,1.0,90,0.00,,,0.00,meteohub,2013-02-03 00:22:00,
2013-02-02 19:27:00,22.3,19.8,30.10,South,180,0.0,1.0,90,0.00,,,0.00,meteohub,2013-02-03 00:27:00,
2013-02-02 19:32:00,22.3,20.1,30.10,South,179,0.0,1.0,91,0.00,,,0.00,meteohub,2013-02-03 00:32:00,
2013-02-02 19:37:00,22.3,20.1,30.10,South,180,0.0,1.0,91,0.00,,,0.00,meteohub,2013-02-03 00:37:00,
2013-02-02 19:42:00,22.3,20.1,30.10,South,180,0.0,1.0,91,0.00,,,0.00,meteohub,2013-02-03 00:42:00,
2013-02-02 19:47:00,22.5,20.3,30.10,South,179,0.0,1.0,91,0.00,,,0.00,meteohub,2013-02-03 00:47:00,
2013-02-02 19:52:00,22.5,20.3,30.10,South,180,0.0,1.0,91,0.00,,,0.00,meteohub,2013-02-03 00:52:00,
2013-02-02 19:57:00,22.3,20.1,30.10,South,180,0.0,1.0,91,0.00,,,0.00,meteohub,2013-02-03 00:57:00,
2013-02-02 20:02:00,22.3,20.1,30.10,South,180,0.0,2.0,91,0.00,,,0.00,meteohub,2013-02-03 01:02:00,
2013-02-02 20:07:00,22.5,20.3,30.10,South,179,0.0,2.0,91,0.00,,,0.00,meteohub,2013-02-03 01:07:00,
2013-02-02 20:12:00,22.5,20.3,30.10,South,180,0.0,2.0,91,0.00,,,0.00,meteohub,2013-02-03 01:12:00,
2013-02-02 20:17:00,22.5,20.5,30.10,South,180,0.0,2.0,92,0.00,,,0.00,meteohub,2013-02-03 01:17:00,
2013-02-02 20:22:00,22.5,20.5,30.10,South,180,0.0,1.0,92,0.00,,,0.00,meteohub,2013-02-03 01:22:00,
2013-02-02 20:27:00,22.5,20.5,30.10,South,179,0.0,1.0,92,0.00,,,0.00,meteohub,2013-02-03 01:27:00,
2013-02-02 20:32:00,22.5,20.5,30.10,South,180,0.0,1.0,92,0.00,,,0.00,meteohub,2013-02-03 01:32:00,
2013-02-02 20:37:00,22.5,20.5,30.10,South,180,0.0,1.0,92,0.00,,,0.00,meteohub,2013-02-03 01:37:00,
2013-02-02 20:42:00,22.5,20.5,30.09,South,179,0.0,0.0,92,0.00,,,0.00,meteohub,2013-02-03 01:42:00,
2013-02-02 20:47:00,22.5,20.5,30.09,South,179,0.0,0.0,92,0.00,,,0.00,meteohub,2013-02-03 01:47:00,
2013-02-02 20:52:00,22.5,20.5,30.09,South,180,0.0,0.0,92,0.00,,,0.00,meteohub,2013-02-03 01:52:00,
2013-02-02 20:57:00,22.5,20.5,30.09,South,180,0.0,2.0,92,0.00,,,0.00,meteohub,2013-02-03 01:57:00,
2013-02-02 21:02:00,22.5,20.5,30.09,South,179,0.0,2.0,92,0.00,,,0.00,meteohub,2013-02-03 02:02:00,
2013-02-02 21:07:00,22.5,20.5,30.09,South,180,0.0,2.0,92,0.00,,,0.00,meteohub,2013-02-03 02:07:00,
2013-02-02 21:12:00,22.5,20.5,30.09,South,180,0.0,2.0,92,0.00,,,0.00,meteohub,2013-02-03 02:12:00,
2013-02-02 21:17:00,22.5,20.5,30.09,South,179,0.0,1.0,92,0.00,,,0.00,meteohub,2013-02-03 02:17:00,
2013-02-02 21:22:00,22.5,20.5,30.09,South,179,0.0,1.0,92,0.00,,,0.00,meteohub,2013-02-03 02:22:00,
2013-02-02 21:27:00,22.5,20.5,30.09,South,180,0.0,1.0,92,0.00,,,0.00,meteohub,2013-02-03 02:27:00,
2013-02-02 21:32:00,22.5,20.5,30.08,South,180,0.0,0.0,92,0.00,,,0.00,meteohub,2013-02-03 02:32:00,
2013-02-02 21:37:00,22.5,20.5,30.08,South,180,0.0,0.0,92,0.00,,,0.00,meteohub,2013-02-03 02:37:00,
2013-02-02 21:42:00,22.5,20.5,30.08,South,179,0.0,0.0,92,0.00,,,0.00,meteohub,2013-02-03 02:42:00,
2013-02-02 21:47:00,22.5,20.7,30.08,South,179,0.0,0.0,93,0.00,,,0.00,meteohub,2013-02-03 02:47:00,
2013-02-02 21:52:00,22.5,20.7,30.07,South,180,0.0,0.0,93,0.00,,,0.00,meteohub,2013-02-03 02:52:00,
2013-02-02 21:57:00,22.5,20.5,30.07,South,179,0.0,0.0,92,0.00,,,0.00,meteohub,2013-02-03 02:57:00,
2013-02-02 22:02:00,22.5,20.5,30.07,South,179,0.0,0.0,92,0.00,,,0.00,meteohub,2013-02-03 03:02:00,
2013-02-02 22:07:00,22.5,20.5,30.07,South,180,0.0,0.0,92,0.00,,,0.00,meteohub,2013-02-03 03:07:00,
2013-02-02 22:12:00,22.5,20.7,30.06,South,180,0.0,0.0,93,0.00,,,0.00,meteohub,2013-02-03 03:12:00,
2013-02-02 22:17:00,22.5,20.7,30.06,South,179,0.0,0.0,93,0.00,,,0.00,meteohub,2013-02-03 03:17:00,
2013-02-02 22:22:00,22.5,20.7,30.06,South,180,0.0,0.0,93,0.00,,,0.00,meteohub,2013-02-03 03:22:00,
2013-02-02 22:27:00,22.6,20.8,30.06,South,180,0.0,0.0,93,0.00,,,0.00,meteohub,2013-02-03 03:27:00,
2013-02-02 22:32:00,22.5,20.7,30.05,South,179,0.0,0.0,93,0.00,,,0.00,meteohub,2013-02-03 03:32:00,
2013-02-02 22:37:00,22.5,20.7,30.05,South,179,0.0,0.0,93,0.00,,,0.00,meteohub,2013-02-03 03:37:00,
2013-02-02 22:42:00,22.5,20.7,30.05,South,180,0.0,0.0,93,0.00,,,0.00,meteohub,2013-02-03 03:42:00,
2013-02-02 22:47:00,22.5,20.7,30.05,South,180,0.0,0.0,93,0.00,,,0.00,meteohub,2013-02-03 03:47:00,
2013-02-02 22:52:00,22.5,20.7,30.05,South,180,0.0,0.0,93,0.00,,,0.00,meteohub,2013-02-03 03:52:00,
2013-02-02 22:57:00,22.5,20.7,30.05,South,179,0.0,0.0,93,0.00,,,0.00,meteohub,2013-02-03 03:57:00,
2013-02-02 23:02:00,22.5,20.7,30.05,South,180,0.0,0.0,93,0.00,,,0.00,meteohub,2013-02-03 04:02:00,
2013-02-02 23:07:00,22.3,20.5,30.05,South,180,0.0,0.0,93,0.00,,,0.00,meteohub,2013-02-03 04:07:00,
2013-02-02 23:12:00,22.5,20.7,30.05,South,179,0.0,0.0,93,0.00,,,0.00,meteohub,2013-02-03 04:12:00,
2013-02-02 23:17:00,22.5,20.7,30.05,South,179,0.0,0.0,93,0.00,,,0.00,meteohub,2013-02-03 04:17:00,
2013-02-02 23:22:00,22.5,20.7,30.05,South,180,0.0,0.0,93,0.00,,,0.00,meteohub,2013-02-03 04:22:00,
2013-02-02 23:27:00,22.5,20.7,30.05,South,180,0.0,0.0,93,0.00,,,0.00,meteohub,2013-02-03 04:27:00,
2013-02-02 23:32:00,22.5,20.7,30.05,South,179,0.0,0.0,93,0.00,,,0.00,meteohub,2013-02-03 04:32:00,
2013-02-02 23:37:00,22.5,20.7,30.05,South,180,0.0,0.0,93,0.00,,,0.00,meteohub,2013-02-03 04:37:00,
2013-02-02 23:42:00,22.5,20.7,30.05,South,180,0.0,0.0,93,0.00,,,0.00,meteohub,2013-02-03 04:42:00,
2013-02-02 23:47:00,22.5,20.7,30.05,South,180,0.0,0.0,93,0.00,,,0.00,meteohub,2013-02-03 04:47:00,
2013-02-02 23:52:00,22.5,20.7,30.05,South,179,0.0,0.0,93,0.00,,,0.00,meteohub,2013-02-03 04:52:00,
2013-02-02 23:57:00,22.6,20.8,30.04,South,180,0.0,0.0,93,0.00,,,0.00,meteohub,2013-02-03 04:57:00,